Flag for Germany Weather past 2 weeks in Waiblingen, Baden-Württemberg, Germany

Now
64 °F

Sunny.


Feels Like: 64 °F
Forecast: 40 / 62 °F
Wind: 5 mph from North

Location: Stuttgart-Echterdingen

Current Time: Apr 21, 2015 at 9:28:36 PM

Latest Report: Apr 21, 2015 at 8:50 PM


Visibility: 10 mi

Pressure: 30.33 "Hg

Humidity: 28%

Dew point: 30 °F

Location of WaiblingenLocation

Historic Weather in Waiblingen — Graph

°F

Waiblingen temperature yesterday

Maximum temperature yesterday: 63 °F (at 2:50 PM)
Minimum temperature yesterday: 36 °F (at 3:50 AM)
Average temperature yesterday: 51 °F

Past Weeks' High & Low Weather Summary

 TemperatureHumidityPressure
High77 °F (Apr 15, 3:20 PM)93% (Apr 8, 6:20 AM)30.60 "Hg (Apr 8, 6:20 AM)
Low28 °F (Apr 7, 4:20 AM)15% (Apr 15, 5:50 PM)29.86 "Hg (Apr 17, 7:50 AM)
Average53 °F57%30.25 "Hg
* Reported Apr 6 7:20 PM — Apr 21 7:50 PM, Waiblingen, Weather by CustomWeather, © 2015

Note: Actual official high and low records may vary slightly from our data, if they occured in-between our weather recording intervals... More about our weather records

Advertising

Waiblingen weather history for previous 24 hours

 ConditionsComfort  
Time TempWeatherWind HumidityBarometerVisibility
7:50 PM
Tue, Apr 21
66 °FSunny.5 mph26%30.30 "Hg10 mi
7:20 PM68 °FSunny.6 mph24%30.30 "Hg10 mi
6:50 PM68 °FPassing clouds.3 mph24%30.30 "HgN/A
6:20 PM68 °FSunny.2 mph26%30.30 "Hg10 mi
5:50 PM68 °FPassing clouds.3 mph24%30.33 "HgN/A
5:20 PM70 °FSunny.1 mph27%30.33 "Hg10 mi
4:50 PM68 °FSunny.2 mph28%30.33 "Hg10 mi
4:20 PM68 °FSunny.3 mph28%30.33 "Hg10 mi
3:50 PM68 °FPassing clouds.6 mph26%30.33 "HgN/A
3:20 PM66 °FSunny.5 mph28%30.36 "Hg10 mi
2:50 PM66 °FPassing clouds.6 mph30%30.36 "HgN/A
2:20 PM66 °FSunny.5 mph32%30.36 "Hg10 mi
1:50 PM64 °FSunny.5 mph30%30.36 "Hg10 mi
1:20 PM64 °FSunny.3 mph30%30.36 "Hg10 mi
12:50 PM63 °FSunny.3 mph34%30.39 "Hg10 mi
12:20 PM63 °FPassing clouds.7 mph39%30.39 "HgN/A
11:50 AM61 °FSunny.3 mph48%30.39 "Hg10 mi
11:20 AM59 °FSunny.2 mph48%30.39 "Hg10 mi
10:50 AM57 °FPassing clouds.3 mph48%30.39 "HgN/A
10:20 AM55 °FPassing clouds.3 mph51%30.39 "HgN/A
9:50 AM54 °FSunny.2 mph58%30.39 "Hg10 mi
9:20 AM52 °FSunny.2 mph62%30.36 "Hg10 mi
8:50 AM48 °FSunny.1 mph66%30.36 "Hg10 mi
8:20 AM43 °FSunny.1 mph81%30.36 "Hg10 mi
7:50 AM41 °FSunny.1 mph81%30.36 "Hg10 mi
7:20 AM39 °FClear.2 mph81%30.36 "Hg10 mi
6:50 AM39 °FClear.1 mph81%30.33 "Hg10 mi
6:20 AM39 °FClear.2 mph75%30.33 "Hg10 mi
5:20 AM39 °FClear.No wind81%30.33 "Hg10 mi
4:50 AM39 °FClear.2 mph81%30.33 "Hg10 mi
4:20 AM37 °FClear.2 mph81%30.33 "Hg10 mi
3:50 AM43 °FClear.2 mph71%30.33 "Hg10 mi
3:20 AM43 °FClear.2 mph71%30.33 "Hg10 mi
2:50 AM43 °FPassing clouds.3 mph71%30.30 "HgN/A
2:20 AM41 °FClear.2 mph70%30.30 "Hg10 mi
1:50 AM43 °FClear.3 mph71%30.33 "Hg10 mi
1:20 AM45 °FClear.1 mph66%30.30 "Hg10 mi
12:50 AM46 °FClear.1 mph62%30.30 "Hg10 mi
12:20 AM46 °FClear.3 mph62%30.30 "Hg10 mi
11:50 PM
Mon, Apr 20
45 °FPassing clouds.3 mph66%30.30 "HgN/A
11:20 PM48 °FClear.3 mph58%30.30 "Hg10 mi
10:50 PM50 °FClear.5 mph50%30.30 "Hg10 mi
10:20 PM52 °FClear.5 mph47%30.30 "Hg10 mi
9:50 PM54 °FPassing clouds.3 mph44%30.27 "HgN/A
9:20 PM55 °FSunny.2 mph38%30.27 "Hg10 mi
Weather by CustomWeather, © 2015

See weather overviewHow to use our weather pages